Preview of NWS' New Version of Forecast
This preview is not operational and should not be used for support decisions.

Regional Weather Roundup (RWR)

Issued by National Weather Service (NWS)

                            
000
ASUS46 KSEW 210810
RWRWA 

WASHINGTON REGIONAL WEATHER ROUNDUP
NATIONAL WEATHER SERVICE SEATTLE WA
100 AM PDT SAT SEP 21 2019

NOTE:"FAIR" INDICATES FEW OR NO CLOUDS BELOW 12,000 FEET WITH NO 
SIGNIFICANT WEATHER AND/OR OBSTRUCTIONS TO VISIBILITY.

WAZ507-509-555>559-210900-
SEATTLE, TACOMA, EVERETT, AND VICINITY
  
CITY           SKY/WX    TMP DP  RH WIND       PRES   REMARKS
EVERETT        PTCLDY    58  54  86 SE3       30.16R                  
BOEING FIELD   MOCLDY    58  54  86 SE5       30.15R                  
RENTON         MOCLDY    58  53  84 SE3       30.15R                  
SEATAC AIRPORT MOCLDY    59  54  83 S5        30.16R                  
JBLM-MCCHORD   PTCLDY    55  55 100 S3        30.16R                  
PUYALLUP       CLOUDY    55  55 100 CALM      30.17R                  
BREMERTON      FOG       55  55 100 SW5       30.16R VSB 1/2          
JBLM-FT LEWIS  NOT AVBL                                               
TACOMA NARROWS PTCLDY    56  54  93 SW3       30.16R                  
$$
 
WAZ001-503-506-510-514-515-210900-
NORTH INTERIOR
  
CITY           SKY/WX    TMP DP  RH WIND       PRES   REMARKS
BELLINGHAM     CLOUDY    58  53  84 CALM      30.14R                  
FRIDAY HARBOR  CLOUDY    53  51  93 CALM      30.15R                  
EASTSOUND      CLOUDY    59  54  82 S6        30.13R                  
PORT ANGELES   CLEAR     55  54  96 SW3       30.15S                  
EDIZ HOOK      FAIR      57  55  93 SW5       30.15R                  
PORT TOWNSEND  CLOUDY    52  52 100 CALM      30.14S FOG              
NAS WHIDBEY    CLOUDY    59  52  77 CALM      30.19R                  
ARLINGTON      CLOUDY    54  53  97 CALM      30.16R                  
BURLINGTON     CLOUDY    57  54  88 CALM      30.15S                  
$$
 
WAZ020-022-039-040-504-511-512-210900-
SOUTHWEST INTERIOR
  
CITY           SKY/WX    TMP DP  RH WIND       PRES   REMARKS
SHELTON        CLOUDY    58  54  86 W9        30.14R                  
OLYMPIA        CLEAR     52  51  97 CALM      30.16R                  
CHEHALIS       CLOUDY    55  55 100 CALM      30.17S                  
KELSO          PTCLDY    56  55  97 CALM      30.17R                  
VANCOUVER      CLEAR     57  54  89 CALM      30.16R                  
SCAPPOOSE, OR  CLEAR     55  53  93 CALM      30.15R                  
PORTLAND, OR   MOCLDY    61  56  83 CALM      30.16R                  
$$
 
WAZ021-516-517-210900-
WASHINGTON COAST
  
CITY           SKY/WX    TMP DP  RH WIND       PRES   REMARKS
FORKS          CLOUDY    53  53 100 E5        30.15S                  
HOQUIAM        CLEAR     56  56 100 E3        30.17R                  
ASTORIA, OR    CLOUDY    60  59  96 CALM      30.16R                  
$$
 
WAZ019-023-024-040-567>569-210900-
CASCADE MOUNTAINS AND COLUMBIA GORGE
  
CITY           SKY/WX    TMP DP  RH WIND       PRES   REMARKS
STAMPEDE PASS  NOT AVBL                                               
TROUTDALE, OR  CLOUDY    60  56  86 CALM      30.15R                  
HOOD RIVER, OR MOSUNNY   52  48  87 CALM      30.12S                  
THE DALLES, OR CLEAR     62  50  64 NW12G18   30.08S                  
$$

WAZ026-027-041>044-520-521-210900-
EAST SLOPES
  
CITY           SKY/WX    TMP DP  RH WIND       PRES   REMARKS
OMAK           CLEAR     50  42  74 NW7       30.06R                  
WENATCHEE      CLEAR     59  44  57 NW10      30.07R                  
ELLENSBURG     PTCLDY    57  45  64 NW14G25   30.08R                  
YAKIMA         PTCLDY    52  43  71 W7        30.07S                  
SUNNYSIDE ARPT SUNNY     48  46  93 CALM      30.07R                  
YAKIMA TC      NOT AVBL                                               
$$

WAZ028-034-035-210900-
COLUMBIA BASIN
  
CITY           SKY/WX    TMP DP  RH WIND       PRES   REMARKS
EPHRATA        CLEAR     62  43  49 NW10      30.02S                  
MOSES LAKE     CLEAR     59  44  57 W5        30.03R                  
PASCO          CLEAR     55  49  80 CALM      30.06R                  
RICHLAND ARPT  SUNNY     57  51  79 CALM      30.06R                  
HERMISTON, OR  CLEAR     61  48  62 SW10      30.07R                  
$$

WAZ036>038-210900-
NORTHEAST WASHINGTON
  
CITY           SKY/WX    TMP DP  RH WIND       PRES   REMARKS
SPOKANE GEIGER PTCLDY    53  45  74 CALM      30.05R                  
SPOKANE FELTS  CLEAR     50  48  93 CALM      30.05S                  
FAIRCHILD AFB  NOT AVBL                                               
COEURDALENE,ID CLEAR     51  50  96 S5        30.06R                  
DEER PARK      FOG       43  42  97 CALM      30.05S VSB 1/2          
$$

WAZ029>033-210900-
SOUTHEAST WASHINGTON
  
CITY           SKY/WX    TMP DP  RH WIND       PRES   REMARKS
PULLMAN        CLOUDY    51  46  83 CALM      30.10R                  
LEWISTON, ID   PTCLDY    58  49  72 CALM      30.07R                  
WALLA WALLA    CLEAR     58  47  66 S8        30.09R                  
PENDLETON, OR  CLEAR     54  47  77 S7        30.09R                  
$$